Location: Blanot
(47.1713°N, 4.2340°E)
Time: 10:46:37
(UTC+00:00)

Cosmos 1515 - Pass Details

Date: 14 July 2020
Orbit: 507 x 515 km, 82.5° (Epoch: 05 August)

Event Time Altitude Azimuth Distance (km) Brightness Sun altitude
Rises 01:08:52 0° 350° (N) 2,640 8.3 -18.9°
Reaches altitude 10° 01:11:01 10° 349° (N) 1,749 7.2 -18.8°
Maximum altitude 01:14:51 83° 263° (W) 525 3.6 -18.5°
Enters shadow 01:15:51 48° 180° (S) 683 3.8 -18.5°
